Location: Fort Worth, Tx
(32.7431°N, 97.3695°W)
Time: 13:13:39
(UTC-05:00)

Vanguard 1 - Visible Passes

Search period start: 07 February 2023 00:00
Search period end: 17 February 2023 00:00
Orbit: 650 x 3831 km, 34.2° (Epoch: 06 February)

Date Brightness Start Highest point End Pass type
(mag) Time Alt. Az. Time Alt. Az. Time Alt. Az.
07 Feb 11.0 05:15:08 49° E 05:15:08 49° E 05:22:10 10° ENE visible
07 Feb 11.1 07:27:49 14° W 07:34:33 82° N 07:48:55 10° E visible
08 Feb 10.4 05:34:41 70° E 05:34:41 70° E 05:43:20 10° E visible
08 Feb 11.3 07:47:44 10° W 07:55:26 86° N 08:10:28 10° E visible
09 Feb 10.1 05:54:14 82° NW 05:54:29 84° N 06:04:33 10° E visible
10 Feb 12.9 04:01:04 10° E 04:01:04 10° E 04:01:09 10° E visible
10 Feb 10.2 06:13:45 58° WNW 06:15:15 80° N 06:25:52 10° E visible
11 Feb 12.5 04:20:35 16° E 04:20:35 16° E 04:22:09 10° ENE visible
11 Feb 10.5 06:33:17 40° WNW 06:36:02 81° N 06:47:14 10° E visible
12 Feb 12.1 04:40:06 24° E 04:40:06 24° E 04:43:09 10° E visible
12 Feb 10.6 06:52:48 27° WNW 06:56:49 86° N 07:08:36 10° E visible
13 Feb 11.5 04:59:38 34° ENE 04:59:38 34° ENE 05:04:12 10° E visible
13 Feb 10.8 07:12:19 18° W 07:17:35 86° SSW 07:29:56 10° ESE visible
14 Feb 10.8 05:19:09 48° ENE 05:19:09 48° ENE 05:25:19 10° E visible
14 Feb 11.0 07:31:50 11° W 07:38:21 75° SSW 07:51:08 10° ESE visible
15 Feb 10.2 05:38:41 70° ENE 05:38:41 70° ENE 05:46:29 10° E visible
16 Feb 9.9 05:58:13 78° WNW 05:58:39 86° N 06:07:40 10° E visible
